Location: Altenst�hlen
(53.5567°N, 8.9425°E)
Time: 04:53:50
(UTC+00:00)

SJ 16-02 - Pass Details

Date: 23 October 2019
Orbit: 607 x 616 km, 75.0° (Epoch: 18 November)

Event Time Altitude Azimuth Distance (km) Brightness Sun altitude
Rises 17:09:42 0° 340° (NNW) 2,885 5.0 -9.4°
Reaches altitude 10° 17:12:12 10° 351° (N) 1,975 4.0 -9.7°
Maximum altitude 17:16:04 29° 52° (NE) 1,129 2.2 -10.3°
Enters shadow 17:19:27 12° 110° (ESE) 1,808 3.2 -10.8°
